EDT,Max TemperatureF,Mean TemperatureF,Min TemperatureF,Max Dew PointF,MeanDew PointF,Min DewpointF,Max Humidity, Mean Humidity, Min Humidity, Max Sea Level PressureIn, Mean Sea Level PressureIn, Min Sea Level PressureIn, Max VisibilityMiles, Mean VisibilityMiles, Min VisibilityMiles, Max Wind SpeedMPH, Mean Wind SpeedMPH, Max Gust SpeedMPH,PrecipitationIn, CloudCover, Events, WindDirDegrees
2013-10-1,84,67,50,61,55,50,100,70,40,30.16,30.10,30.05,10,6,0,10,2,15,0.00,0,Fog,339
2013-10-2,86,70,53,65,57,53,100,68,35,30.16,30.11,30.06,10,4,0,8,1,10,0.00,2,Fog,55
2013-10-3,86,71,56,63,59,55,100,70,40,30.15,30.11,30.06,10,4,0,9,2,13,0.00,1,Fog,113
2013-10-4,88,73,58,68,63,57,100,70,40,30.16,30.12,30.06,10,5,0,7,0,12,0.00,3,Fog,20
2013-10-5,89,73,57,68,62,57,100,72,43,30.13,30.09,30.01,10,5,0,9,1,13,0.00,1,Fog,128
2013-10-6,87,73,59,71,65,59,100,74,48,30.05,29.99,29.89,10,4,0,10,3,15,0.03,2,Fog-Rain,135
2013-10-7,80,75,69,73,72,67,100,90,79,29.92,29.85,29.81,10,9,1,12,3,16,0.25,6,Rain,143
2013-10-8,70,64,58,68,58,52,97,79,61,30.15,30.03,29.90,10,10,5,22,10,25,0.03,7,Rain,27
2013-10-9,78,65,52,54,51,49,93,64,35,30.18,30.12,30.08,10,10,10,17,7,22,0.00,3,,21
2013-10-10,81,65,49,54,51,48,100,69,38,30.12,30.06,29.98,10,10,10,14,4,20,0.00,0,,333
2013-10-11,85,68,50,59,55,50,100,69,37,30.03,29.97,29.91,10,10,7,14,2,22,0.00,0,,298
2013-10-12,86,68,50,64,56,50,100,69,37,30.06,29.99,29.96,10,6,0,12,2,14,0.00,2,Fog,39
2013-10-13,80,72,63,64,63,61,93,76,58,30.17,30.12,30.07,10,10,2,15,6,22,0.00,7,,20
2013-10-14,72,68,64,64,62,61,87,80,73,30.19,30.14,30.11,10,10,2,16,8,20,0.01,8,Rain,24
2013-10-15,78,67,56,63,57,53,93,68,43,30.16,30.10,30.02,10,10,10,18,6,24,0.00,5,,42
2013-10-16,80,66,52,64,59,52,100,74,48,30.06,30.01,29.96,10,10,7,7,1,9,0.00,3,,9
2013-10-17,85,72,59,68,63,59,100,76,51,29.98,29.94,29.87,10,7,0,15,4,17,0.02,3,Fog-Rain,220
2013-10-18,80,73,66,68,67,64,100,81,62,30.00,29.94,29.90,10,8,2,8,2,9,0.01,8,Rain,260
2013-10-19,78,71,63,68,58,50,97,69,40,29.96,29.93,29.89,10,10,10,15,5,18,T,5,Rain,284
2013-10-20,75,63,50,55,51,47,100,69,38,30.06,30.01,29.95,10,10,7,8,3,16,0.00,1,,23
2013-10-21,72,60,48,58,52,48,100,77,53,30.13,30.08,30.03,10,8,2,8,1,10,0.00,0,,111
2013-10-22,70,64,58,61,59,55,97,79,61,30.04,29.93,29.86,10,9,5,6,1,7,0.03,5,Rain,150
2013-10-23,73,60,46,63,48,29,100,60,20,30.07,29.87,29.81,10,9,7,28,12,35,T,2,,274
2013-10-24,69,52,35,45,36,31,92,58,24,30.22,30.15,30.08,10,10,10,12,3,15,0.00,1,,263
2013-10-25,63,48,33,43,37,31,92,62,32,30.37,30.28,30.18,10,10,10,14,4,17,0.00,2,,6
2013-10-26,65,48,30,39,32,28,100,63,26,30.35,30.27,30.17,10,10,6,10,2,15,0.00,0,,265
2013-10-27,77,56,35,54,44,36,100,69,38,30.17,30.12,30.08,10,9,2,12,2,14,0.00,0,,301
2013-10-28,73,62,50,58,54,50,100,75,49,30.28,30.22,30.14,10,8,3,6,1,8,T,5,Rain,257
2013-10-29,78,63,47,56,51,46,100,72,43,30.35,30.28,30.25,10,4,0,9,1,13,0.00,3,Fog,345
2013-10-30,81,64,47,58,51,48,100,70,39,30.33,30.27,30.18,10,4,0,9,2,15,0.00,4,Fog,223
2013-10-31,82,65,47,65,55,48,100,74,47,30.20,30.14,29.95,10,4,0,18,5,24,T,2,Fog,167